Flag for Germany Weather past 2 weeks in Aurich, Lower Saxony, Germany

Now
55 °F

Passing clouds.


Feels Like: 51 °F
Forecast: 50 / 61 °F
Wind: 16 mph from Northwest

Location: Wittmundhaven

Current Time: Sep 22, 2014 at 6:55:42 AM

Latest Report: Sep 22, 2014 at 6:20 AM


Visibility: N/A

Pressure: 29.95 "Hg

Humidity: 59%

Dew point: 41 °F

Location of AurichLocation

Historic Weather in Aurich — Graph

°F

Aurich temperature yesterday

Maximum temperature yesterday: 63 °F (at 1:20 AM)
Minimum temperature yesterday: 55 °F (at 7:20 PM)
Average temperature yesterday: 60 °F

Past Weeks' High & Low Weather Summary

 TemperatureHumidityPressure
High75 °F (Sep 17, 3:20 PM)100% (Sep 7, 5:20 AM)30.30 "Hg (Sep 7, 5:20 AM)
Low48 °F (Sep 12, 4:20 AM)55% (Sep 22, 5:20 AM)29.86 "Hg (Sep 18, 3:20 PM)
Average62 °F83%30.05 "Hg
* Reported Sep 7 5:20 AM — Sep 22 5:20 AM, Aurich, Weather by CustomWeather, © 2014

Note: Actual official high and low records may vary slightly from our data, if they occured in-between our weather recording intervals... More about our weather records

Advertising

Aurich weather history for previous 24 hours

 ConditionsComfort  
Time TempWeatherWind HumidityBarometerVisibility
5:20 AM
Sep 22
57 °FPartly cloudy.16 mph55%29.98 "HgN/A
4:20 AM57 °FPassing clouds.20 mph63%29.98 "HgN/A
3:20 AM57 °FPassing clouds.17 mph63%29.98 "HgN/A
2:20 AM57 °FPassing clouds.16 mph72%30.01 "HgN/A
1:20 AM57 °FPassing clouds.15 mph59%30.01 "HgN/A
12:20 AM57 °FPassing clouds.16 mph63%30.01 "HgN/A
11:20 PM
Sep 21
57 °FPassing clouds.15 mph72%30.01 "HgN/A
10:20 PM57 °FPassing clouds.15 mph72%30.01 "HgN/A
9:20 PM59 °FPassing clouds.14 mph72%30.01 "HgN/A
8:20 PM57 °FScattered clouds.15 mph82%29.98 "HgN/A
7:20 PM55 °FSprinkles. Broken clouds.8 mph94%29.98 "Hg5 mi
6:20 PM61 °FPassing clouds.15 mph68%29.98 "HgN/A
5:20 PM63 °FPassing clouds.17 mph64%29.98 "HgN/A
4:20 PM61 °FPassing clouds.17 mph68%30.01 "HgN/A
3:20 PM61 °FPassing clouds.20 mph68%30.01 "HgN/A
2:20 PM63 °FPassing clouds.16 mph68%29.98 "HgN/A
1:20 PM63 °FScattered clouds.13 mph68%29.98 "HgN/A
12:20 PM63 °FPassing clouds.16 mph64%29.98 "HgN/A
11:20 AM63 °FPassing clouds.15 mph59%29.98 "HgN/A
10:20 AM61 °FScattered clouds.17 mph63%29.98 "HgN/A
9:20 AM59 °FScattered clouds.12 mph82%29.98 "HgN/A
8:20 AM59 °FPartly sunny.10 mph82%29.95 "HgN/A
7:20 AM59 °FPartly cloudy.9 mph88%29.95 "HgN/A
6:20 AM61 °FPartly cloudy.13 mph88%29.92 "HgN/A
Weather by CustomWeather, © 2014

See weather overviewHow to use our weather pages